Change the Weather History Date:

Saturday, January 11, 2014

  Actual Average Record
Temperature  
Mean Temperature 45 °F -  
Max Temperature 53 °F 40 °F 69 °F (2005)
Min Temperature 37 °F 24 °F -2 °F (1962)
Degree Days  
Heating Degree Days 20    
Moisture  
Dew Point 41 °F    
Average Humidity 82    
Maximum Humidity 96    
Minimum Humidity 69    
Precipitation  
Precipitation 0.01 in - - ()
Sea Level Pressure  
Sea Level Pressure 29.83 in    
Wind  
Wind Speed 9 mph (WSW)    
Max Wind Speed 14 mph    
Max Gust Speed 20 mph    
Visibility 10 miles    
Events Rain    
Averages and records for this station are not official NWS values.
T = Trace of Precipitation, MM = Missing Value Source: NWS Daily Summary

Daily Weather History Graph

Daily Weather History Graph

Search for Another Location

Airport or City:

Trip Planner

Search our weather history database for the weather conditions in past years. The results will help you decide how hot, cold, wet, or windy it might be!

Date:

Astronomy

Jan. 11, 2014 Rise Set
Actual Time 7:09 AM CST 5:04 PM CST
Civil Twilight 6:41 AM CST 5:33 PM CST
Nautical Twilight 6:10 AM CST 6:04 PM CST
Astronomical Twilight 5:39 AM CST 6:35 PM CST
Moon 1:47 PM CST (1/11) 3:16 AM CST (1/11)
Length of Visible Light 10h 51m
Length of Day
9h 55m
Waxing Gibbous, 83% of the Moon is Illuminated
Jan 11
Waxing Gibbous
Jan 15
Full
Jan 23
Last Quarter
Jan 30
New
Feb 6
First Quarter

Hourly Weather History & Observations

Time (CST) Temp. Windchill Dew Point Humidity Pressure Visibility Wind Dir Wind Speed Gust Speed Precip Events Conditions
12:14 AM 53.6 °F - 51.8 °F 94% 29.67 in 10.0 mi WSW 8.1 mph - 0.01 in Rain Light Rain
12:30 AM 53.6 °F - 51.8 °F 94% 29.65 in 10.0 mi SW 9.2 mph - 0.01 in Rain Light Rain
12:53 AM 52.0 °F - 50.0 °F 93% 29.65 in 10.0 mi SSW 11.5 mph - 0.01 in   Overcast
1:53 AM 51.1 °F - 50.0 °F 96% 29.68 in 10.0 mi WSW 10.4 mph - 0.00 in   Mostly Cloudy
2:53 AM 50.0 °F - 46.9 °F 89% 29.69 in 10.0 mi WSW 8.1 mph - N/A   Mostly Cloudy
3:53 AM 46.0 °F 42.5 °F 44.1 °F 93% 29.71 in 10.0 mi SW 6.9 mph - N/A   Clear
4:53 AM 44.1 °F 40.8 °F 42.1 °F 93% 29.72 in 10.0 mi SW 5.8 mph - N/A   Clear
5:53 AM 43.0 °F 41.3 °F 39.9 °F 89% 29.74 in 10.0 mi WSW 3.5 mph - N/A   Clear
6:53 AM 39.9 °F 36.7 °F 37.9 °F 93% 29.77 in 10.0 mi West 4.6 mph - N/A   Clear
7:53 AM 39.9 °F 36.7 °F 37.0 °F 89% 29.79 in 10.0 mi West 4.6 mph - N/A   Clear
8:53 AM 44.1 °F 38.6 °F 37.9 °F 79% 29.82 in 10.0 mi West 10.4 mph - N/A   Clear
9:53 AM 46.0 °F 39.9 °F 39.0 °F 76% 29.85 in 10.0 mi WNW 13.8 mph - N/A   Clear
10:53 AM 46.9 °F - 39.0 °F 74% 29.86 in 10.0 mi NW 11.5 mph - N/A   Clear
11:53 AM 48.0 °F - 39.0 °F 71% 29.84 in 10.0 mi WNW 13.8 mph - N/A   Clear
12:11 PM 48.2 °F - 39.2 °F 71% 29.83 in 10.0 mi West 13.8 mph 18.4 mph N/A   Mostly Cloudy
12:53 PM 48.0 °F - 39.0 °F 71% 29.84 in 10.0 mi West 11.5 mph - N/A   Mostly Cloudy
1:10 PM 48.2 °F - 39.2 °F 71% 29.83 in 10.0 mi West 11.5 mph 19.6 mph N/A   Scattered Clouds
1:53 PM 48.0 °F - 39.0 °F 71% 29.85 in 10.0 mi West 11.5 mph - N/A   Scattered Clouds
2:53 PM 48.0 °F - 39.0 °F 71% 29.87 in 10.0 mi West 10.4 mph - N/A   Clear
3:53 PM 48.9 °F - 39.0 °F 69% 29.88 in 10.0 mi WSW 6.9 mph - N/A   Clear
4:53 PM 48.0 °F - 39.0 °F 71% 29.89 in 10.0 mi SW 5.8 mph - N/A   Clear
5:53 PM 43.0 °F 39.5 °F 37.9 °F 82% 29.91 in 10.0 mi SSW 5.8 mph - N/A   Clear
6:53 PM 41.0 °F 35.8 °F 37.0 °F 86% 29.94 in 10.0 mi SW 8.1 mph - N/A   Clear
7:53 PM 42.1 °F 37.7 °F 37.9 °F 85% 29.96 in 10.0 mi SW 6.9 mph - N/A   Clear
8:53 PM 43.0 °F 39.5 °F 37.9 °F 82% 29.97 in 10.0 mi WSW 5.8 mph - N/A   Clear
9:53 PM 44.1 °F 39.0 °F 37.0 °F 76% 29.99 in 10.0 mi West 9.2 mph - N/A   Clear
10:53 PM 37.9 °F 32.1 °F 34.0 °F 86% 30.01 in 10.0 mi West 8.1 mph - N/A   Clear
11:53 PM 41.0 °F 37.1 °F 33.1 °F 73% 30.02 in 10.0 mi WSW 5.8 mph - N/A   Clear